COSMOS 2491 DEB, 45129

Orbit data source: Space-Track

COSMOS 2491 DEB, 45129 is space debris in LEO originally from a launch on Wed, 25 Dec 2013 UTC launched from the Plesetsk Missile And Space Complex (PKMTR). Debris objects in space refer to the collection of defunct objects orbiting the Earth. Examples of debris include non-operational satellites, rocket bodies, and fragments generated from explosions, collisions, or faulty payload assembly.

Loading next visibility...
COSMOS 2491 DEB details
Identifier
45129, 2013-076AB
Orbit
LEO
Last TLE update1 day ago
Origin
Flag of CISTsNIIKhM (CIS)
ManufacturerTsNIIKhM
MissionSpacecraft
Bus & MotorUnknown
MassUnknown
Launch date (UTC)
2013-12-25 (11 years ago)
Launch vehicleUnknown
Launch site
Plesetsk Missile And Space Complex (PKMTR)
Object type
Payload
Rocket body
Debris
Shape & HBRUnknown
Radar Cross SectionSmall (<0.1 m²)

Expand to show TLE details & history

TLE from 1 day ago
0 COSMOS 2491 DEB
1 45129U 13076AB  24360.02061996  .00008009  00000-0  39738-1 0  9994
2 45129  82.4379 105.3252 0200827 265.6873  92.1249 12.65201664 90773
Epoch: 2024-12-25T00:29Z
Definitive object data (Epoch: 2024-12-25T00:29:41.564Z)
Latitude-0.00011°
Longitude3.88164°
Altitude1,413.202 km
Speed7.15 km/s
True Right ascension07h 01m 18s
True Declination0° 00' 00"
Sunlit
Object was in full shadow at TLE epoch
Visualization TLE readout
Latitude-69.0636°
Longitude-17.23598°
Altitude1,287.795 km
Speed7.277 km/s
Apparent Right ascension23h 54m 35s
Apparent Declination-69° 07' 22"
Sunlit
Object is in daylight
Visualization observer readout
Local Sidereal Time09:38:40
Azimuth200.702° SSW
Elevation-55.71°
Doppler factor1
Orbital elements
Apogee altitude1,555.051 km
Perigee altitude1,242.685 km
Semi-major axis7,777.005 km
Eccentricity0.0200827
Inclination82.4379°
RAAN105.3252°
Arg. of periapsis265.6873°
True anomaly94.42187°
Mean anomaly92.1249°
Eccentric anomaly93.27368°
Mean motion3.16464 °/min
BSTAR0.039738
Orbital period113.76 mins
Loading maneuver chart data...
Loading historical data...
Loading historical data...
Loading historical data...
Loading historical data...
Loading historical data...
Loading historical data...
Loading historical data...

COSMOS 2491 DEB Visibility forecast

Observer location: undefined°, undefined

Span
Click to sort rows by Start time (UTC) header in descending order
Start Az.
Max El. time (UTC)
Max El. Az.
Max El.
End time (UTC)
End Az.
9 mins2024-12-26 16:59:31.180Z28.044° NE2024-12-26 17:03:31.180Z56.733° ENE16.111°2024-12-26 17:08:31.180Z93.974° ESE
16 mins2024-12-26 18:52:31.180Z354.468° N2024-12-26 19:00:31.180Z106.441° ESE44.638°2024-12-26 19:08:31.180Z170.085° S
9 mins2024-12-26 20:49:31.180Z315.574° NNW2024-12-26 20:53:31.180Z284.841° WNW18.961°2024-12-26 20:58:31.180Z245.278° WSW
7 mins2024-12-27 05:48:31.180Z97.849° ESE2024-12-27 05:51:31.180Z76.318° E14.334°2024-12-27 05:55:31.180Z48.403° ENE
16 mins2024-12-27 07:37:31.180Z178.419° S2024-12-27 07:44:31.180Z120.668° SE44.349°2024-12-27 07:53:31.180Z10.423° NNE
11 mins2024-12-27 09:35:31.180Z254.051° W2024-12-27 09:40:31.180Z294.007° NW21.367°2024-12-27 09:46:31.180Z339.883° N
|